Regional Weather Roundup
Issued by NWS

Home | Current Version | Previous Version | Text Only | Print | Product List | Glossary Off
Versions: 1 2 3 4 5 6 7 8 9 10 11 12 13 14 15 16 17 18 19 20 21 22 23 24 25 26 27 28 29 30 31 32 33 34 35 36 37 38 39 40 41 42 43 44 45 46 47 48 49 50

000
ASUS43 KLMK 301902
RWRKY
KENTUCKY REGIONAL WEATHER ROUNDUP
NATIONAL WEATHER SERVICE LOUISVILLE KY
300 PM EDT MON MAY 30 2016

NOTE "FAIR" INDICATES FEW OR NO CLOUDS BELOW 12,000 FEET
WITH NO SIGNIFICANT WEATHER AND/OR OBSTRUCTIONS TO VISIBILITY.

KYZ001>023-026-027-061>063-070>075-302000-
WESTERN AND SOUTH CENTRAL KENTUCKY

CITY           SKY/WX    TMP DP  RH WIND       PRES   REMARKS
PADUCAH        SUNNY     89  59  36 VRB5      30.03F
HENDERSON      MOSUNNY   86  57  37 NE5       30.03S
OWENSBORO      SUNNY     86  58  38 VRB3      30.04S
HOPKINSVILLE   NOT AVBL
BOWLING GREEN  MOSUNNY   87  59  38 N6        30.03F
GLASGOW        NOT AVBL
$$

KYZ024-025-028>034-038-045-046-053-302000-
NORTH CENTRAL KENTUCKY

CITY           SKY/WX    TMP DP  RH WIND       PRES   REMARKS
LOUISVILLE/SDF PTSUNNY   87  56  34 N10       30.02F
LOUISVILLE/LOU MOSUNNY   86  58  38 VRB6      30.03F
FORT KNOX      NOT AVBL
$$

KYZ035>037-039>044-047>052-055>060-089>105-302000-
NORTHEAST KENTUCKY

CITY           SKY/WX    TMP DP  RH WIND       PRES   REMARKS
LEXINGTON      MOSUNNY   85  61  44 NW10      30.04S
COVINGTON      MOSUNNY   85  56  37 N9        30.04S
FRANKFORT      MOSUNNY   86  56  35 VRB5      30.02F
$$

KYZ054-064>069-076>088-106>120-302000-
SOUTHEAST KENTUCKY

CITY           SKY/WX    TMP DP  RH WIND       PRES   REMARKS
JACKSON        MOSUNNY   83  65  54 CALM      30.03F
LONDON         PTSUNNY   81  62  52 N15G26    30.03F
SOMERSET       NOT AVBL
MIDDLESBORO      N/A     81  63  53 W5        30.02S
MONTICELLO     CLEAR     84  61  45 N18       30.04F
$$





USA.gov is the U.S. government's official web portal to all federal, state and local government web resources and services.